�������l�o���
Date,Time,MP-1(��Sv/h),MP-2(��Sv/h),MP-3(��Sv/h),MP-4(��Sv/h),MP-5(��Sv/h),MP-6(��Sv/h),MP-7(��Sv/h),MP-8(��Sv/h),����,����(m/s),���J
2018/12/22,00:00,0.777,1.154,0.812,1.480,1.052,0.449,0.795,0.753,��,10.2,��
2018/12/22,00:10,0.776,1.156,0.813,1.477,1.049,0.451,0.795,0.754,��,11.0,��
2018/12/22,00:20,0.773,1.157,0.812,1.479,1.050,0.450,0.795,0.754,��,10.6,��
2018/12/22,00:30,0.776,1.155,0.814,1.480,1.050,0.449,0.796,0.754,��,10.9,��
2018/12/22,00:40,0.776,1.155,0.812,1.481,1.050,0.451,0.797,0.754,��,10.7,��
2018/12/22,00:50,0.776,1.156,0.812,1.480,1.050,0.450,0.795,0.753,��,9.9,��
2018/12/22,01:00,0.777,1.156,0.813,1.479,1.051,0.451,0.795,0.755,��,9.9,��
2018/12/22,01:10,0.775,1.155,0.813,1.479,1.049,0.452,0.795,0.756,��,9.9,��
2018/12/22,01:20,0.775,1.153,0.812,1.481,1.049,0.451,0.798,0.755,��쐼,9.1,��
2018/12/22,01:30,0.776,1.156,0.813,1.480,1.053,0.451,0.798,0.755,��쐼,8.0,��
2018/12/22,01:40,0.776,1.156,0.816,1.479,1.051,0.452,0.797,0.754,��쐼,7.6,��
2018/12/22,01:50,0.778,1.157,0.814,1.480,1.052,0.452,0.798,0.754,��쐼,8.1,��
2018/12/22,02:00,0.778,1.155,0.815,1.480,1.053,0.451,0.798,0.753,�쐼,7.5,��
2018/12/22,02:10,0.778,1.157,0.816,1.480,1.053,0.453,0.797,0.753,�쐼,8.8,��
2018/12/22,02:20,0.779,1.155,0.816,1.481,1.054,0.454,0.797,0.755,�쐼,7.2,��
2018/12/22,02:30,0.780,1.155,0.814,1.483,1.053,0.453,0.798,0.756,��쐼,6.6,��
2018/12/22,02:40,0.780,1.157,0.815,1.480,1.052,0.452,0.799,0.755,��쐼,7.3,��
2018/12/22,02:50,0.778,1.157,0.814,1.479,1.055,0.452,0.799,0.755,��쐼,9.0,��
2018/12/22,03:00,0.779,1.156,0.815,1.482,1.053,0.454,0.797,0.756,��쐼,9.5,��
2018/12/22,03:10,0.777,1.156,0.815,1.481,1.054,0.452,0.797,0.756,�쐼,9.4,��
2018/12/22,03:20,0.778,1.158,0.816,1.482,1.051,0.453,0.798,0.755,�쐼,10.0,��
2018/12/22,03:30,0.779,1.157,0.815,1.483,1.054,0.454,0.798,0.756,��쐼,9.1,��
2018/12/22,03:40,0.782,1.157,0.818,1.480,1.052,0.454,0.797,0.755,��쐼,6.3,��
2018/12/22,03:50,0.780,1.158,0.813,1.481,1.054,0.454,0.796,0.756,��쐼,5.5,��
2018/12/22,04:00,0.779,1.159,0.816,1.482,1.054,0.453,0.798,0.755,�쐼,4.7,��
2018/12/22,04:10,0.779,1.159,0.817,1.481,1.052,0.454,0.797,0.757,�쐼,3.4,��
2018/12/22,04:20,0.779,1.159,0.814,1.480,1.055,0.454,0.799,0.756,�k�k��,1.2,��
2018/12/22,04:30,0.779,1.157,0.815,1.479,1.053,0.454,0.796,0.755,��쐼,1.5,��
2018/12/22,04:40,0.780,1.157,0.816,1.480,1.052,0.455,0.797,0.756,�쐼,1.7,��
2018/12/22,04:50,0.780,1.157,0.815,1.480,1.053,0.453,0.797,0.757,��쐼,2.5,��
2018/12/22,05:00,0.777,1.156,0.815,1.482,1.055,0.454,0.797,0.755,��쐼,2.3,��
2018/12/22,05:10,0.778,1.158,0.815,1.480,1.053,0.455,0.798,0.756,���k��,1.7,��
2018/12/22,05:20,0.778,1.157,0.814,1.482,1.055,0.453,0.796,0.755,�k�k��,3.8,��
2018/12/22,05:30,0.777,1.158,0.815,1.481,1.052,0.453,0.796,0.755,�k�k��,5.5,��
2018/12/22,05:40,0.777,1.159,0.815,1.482,1.054,0.454,0.795,0.755,�k�k��,6.5,��
2018/12/22,05:50,0.776,1.157,0.816,1.482,1.050,0.453,0.795,0.757,�k�k��,8.0,��
2018/12/22,06:00,0.778,1.157,0.813,1.480,1.053,0.452,0.795,0.755,�k,7.9,��
2018/12/22,06:10,0.779,1.157,0.813,1.481,1.054,0.453,0.795,0.754,�k�k��,6.8,��
2018/12/22,06:20,0.778,1.159,0.813,1.481,1.053,0.452,0.794,0.755,�k�k��,6.8,��
2018/12/22,06:30,0.776,1.158,0.815,1.482,1.053,0.451,0.795,0.753,�k�k��,7.0,��
2018/12/22,06:40,0.776,1.155,0.813,1.483,1.051,0.453,0.794,0.756,�k�k��,7.9,��
2018/12/22,06:50,0.779,1.156,0.816,1.482,1.056,0.451,0.795,0.756,�k�k��,7.6,��
2018/12/22,07:00,0.776,1.161,0.814,1.479,1.052,0.451,0.794,0.754,�k�k��,7.8,��
2018/12/22,07:10,0.777,1.157,0.814,1.480,1.052,0.452,0.794,0.755,�k�k��,7.9,��
2018/12/22,07:20,0.778,1.156,0.814,1.481,1.053,0.451,0.794,0.754,�k�k��,7.3,��
2018/12/22,07:30,0.775,1.155,0.814,1.478,1.052,0.450,0.795,0.752,�k�k��,6.1,��
2018/12/22,07:40,0.775,1.157,0.814,1.480,1.052,0.451,0.798,0.755,�k�k��,6.3,��
2018/12/22,07:50,0.778,1.156,0.812,1.482,1.052,0.452,0.797,0.755,�k�k��,6.2,��
2018/12/22,08:00,0.777,1.155,0.814,1.478,1.052,0.451,0.797,0.753,�k��,6.5,��
2018/12/22,08:10,0.776,1.156,0.815,1.480,1.053,0.450,0.795,0.753,�k�k��,5.4,��
2018/12/22,08:20,0.776,1.157,0.814,1.480,1.052,0.450,0.797,0.755,�k�k��,4.9,��
2018/12/22,08:30,0.776,1.156,0.814,1.482,1.051,0.452,0.798,0.754,�k�k��,4.5,��
2018/12/22,08:40,0.777,1.158,0.813,1.481,1.050,0.451,0.796,0.756,�k��,2.6,��
2018/12/22,08:50,0.778,1.156,0.814,1.481,1.052,0.450,0.797,0.753,�k��,4.3,��
2018/12/22,09:00,0.778,1.160,0.814,1.483,1.053,0.451,0.798,0.757,�k��,5.6,��
2018/12/22,09:10,0.779,1.156,0.814,1.483,1.051,0.451,0.798,0.755,�k��,7.2,��
2018/12/22,09:20,0.779,1.158,0.814,1.481,1.051,0.453,0.798,0.755,�k��,5.3,��
2018/12/22,09:30,0.777,1.156,0.814,1.485,1.056,0.453,0.798,0.757,�k��,4.0,��
2018/12/22,09:40,0.780,1.158,0.816,1.482,1.053,0.453,0.796,0.757,�k��,4.4,��
2018/12/22,09:50,0.779,1.157,0.815,1.482,1.054,0.454,0.797,0.754,�k��,4.2,��
2018/12/22,10:00,0.780,1.158,0.814,1.483,1.053,0.454,0.798,0.757,�k��,4.5,��
2018/12/22,10:10,0.780,1.155,0.815,1.485,1.052,0.453,0.797,0.755,���k��,4.7,��
2018/12/22,10:20,0.780,1.155,0.816,1.486,1.055,0.455,0.796,0.757,���k��,4.6,��
2018/12/22,10:30,0.780,1.157,0.816,1.482,1.052,0.453,0.798,0.755,�k��,4.3,��
2018/12/22,10:40,0.778,1.155,0.816,1.485,1.054,0.454,0.796,0.755,�k��,3.7,��
2018/12/22,10:50,0.778,1.157,0.816,1.481,1.055,0.452,0.798,0.755,�k��,4.3,��
2018/12/22,11:00,0.777,1.156,0.815,1.481,1.055,0.452,0.797,0.755,�k,2.9,��
2018/12/22,11:10,0.779,1.155,0.816,1.483,1.054,0.452,0.795,0.756,�k�k��,3.2,��
2018/12/22,11:20,0.778,1.155,0.815,1.481,1.053,0.450,0.797,0.757,�k�k��,3.2,��
2018/12/22,11:30,0.778,1.156,0.816,1.483,1.057,0.451,0.796,0.756,�k,4.0,��
2018/12/22,11:40,0.779,1.153,0.816,1.485,1.056,0.452,0.796,0.756,�k�k��,4.8,��
2018/12/22,11:50,0.778,1.155,0.817,1.481,1.055,0.451,0.797,0.756,�k��,2.9,��
2018/12/22,12:00,0.778,1.156,0.817,1.482,1.058,0.452,0.796,0.757,�k��,2.0,��
2018/12/22,12:10,0.779,1.156,0.819,1.484,1.057,0.452,0.796,0.756,��,0.8,��
2018/12/22,12:20,0.780,1.157,0.819,1.486,1.057,0.453,0.795,0.756,�k��,0.9,��
2018/12/22,12:30,0.781,1.156,0.817,1.484,1.054,0.453,0.798,0.757,���k��,1.2,��
2018/12/22,12:40,0.782,1.156,0.820,1.485,1.058,0.454,0.797,0.755,��,2.0,��
2018/12/22,12:50,0.780,1.157,0.818,1.487,1.056,0.454,0.798,0.757,��,2.9,��
2018/12/22,13:00,0.780,1.158,0.817,1.485,1.057,0.456,0.799,0.757,���쐼,4.8,��
2018/12/22,13:10,0.779,1.158,0.817,1.484,1.056,0.455,0.798,0.757,���쐼,4.8,��
2018/12/22,13:20,0.780,1.157,0.816,1.483,1.057,0.453,0.799,0.754,��,4.4,��
2018/12/22,13:30,0.780,1.155,0.816,1.485,1.060,0.454,0.797,0.753,��,5.6,��
2018/12/22,13:40,0.779,1.157,0.815,1.485,1.056,0.454,0.799,0.754,��,5.4,��
2018/12/22,13:50,0.781,1.157,0.814,1.485,1.058,0.456,0.798,0.754,��,6.6,��
2018/12/22,14:00,0.779,1.156,0.816,1.485,1.056,0.454,0.799,0.754,���k��,5.3,��
2018/12/22,14:10,0.781,1.157,0.815,1.484,1.057,0.456,0.799,0.755,���k��,5.6,��
2018/12/22,14:20,0.779,1.157,0.816,1.485,1.056,0.455,0.799,0.753,���k��,5.8,��
2018/12/22,14:30,0.780,1.158,0.817,1.485,1.058,0.455,0.799,0.754,���k��,5.1,��
2018/12/22,14:40,0.781,1.157,0.816,1.487,1.058,0.455,0.798,0.752,���k��,5.0,��
2018/12/22,14:50,0.780,1.154,0.817,1.487,1.058,0.455,0.799,0.752,���k��,4.9,��
2018/12/22,15:00,0.782,1.155,0.816,1.486,1.058,0.456,0.797,0.754,���k��,4.2,��
2018/12/22,15:10,0.779,1.159,0.818,1.485,1.056,0.453,0.798,0.755,���k��,3.4,��
2018/12/22,15:20,0.779,1.162,0.815,1.486,1.055,0.454,0.798,0.757,�k��,3.0,��
2018/12/22,15:30,0.778,1.160,0.818,1.486,1.055,0.455,0.798,0.758,���k��,3.3,��
2018/12/22,15:40,0.779,1.160,0.817,1.484,1.054,0.455,0.799,0.756,���k��,2.3,��
2018/12/22,15:50,0.778,1.162,0.817,1.486,1.055,0.455,0.799,0.756,�k�k��,3.5,��
2018/12/22,16:00,0.779,1.161,0.817,1.484,1.052,0.455,0.799,0.756,�k�k��,6.3,��
2018/12/22,16:10,0.776,1.160,0.818,1.485,1.054,0.453,0.796,0.758,�k�k��,6.3,��
2018/12/22,16:20,0.778,1.162,0.817,1.483,1.054,0.455,0.798,0.756,�k�k��,4.9,��
2018/12/22,16:30,0.780,1.159,0.819,1.485,1.054,0.453,0.798,0.758,�k��,5.9,��
2018/12/22,16:40,0.783,1.159,0.816,1.485,1.055,0.453,0.799,0.757,�k��,5.7,��
2018/12/22,16:50,0.781,1.161,0.817,1.487,1.056,0.452,0.801,0.758,�k��,5.8,��
2018/12/22,17:00,0.782,1.160,0.817,1.483,1.056,0.454,0.798,0.756,�k��,6.0,��
2018/12/22,17:10,0.779,1.163,0.816,1.484,1.056,0.454,0.794,0.756,���k��,5.9,��
2018/12/22,17:20,0.780,1.160,0.816,1.486,1.057,0.453,0.798,0.756,���k��,4.7,��
2018/12/22,17:30,0.780,1.161,0.815,1.488,1.055,0.453,0.796,0.756,�k��,3.7,��
2018/12/22,17:40,0.779,1.160,0.818,1.487,1.057,0.454,0.798,0.757,�k�k��,3.5,��
2018/12/22,17:50,0.781,1.162,0.816,1.485,1.056,0.454,0.796,0.754,�k�k��,5.5,��
2018/12/22,18:00,0.779,1.162,0.817,1.486,1.054,0.454,0.798,0.756,�k�k��,6.9,��
2018/12/22,18:10,0.778,1.163,0.817,1.485,1.057,0.454,0.797,0.755,�k�k��,6.3,��
2018/12/22,18:20,0.780,1.163,0.818,1.485,1.056,0.453,0.798,0.754,�k�k��,6.1,��
2018/12/22,18:30,0.784,1.163,0.818,1.486,1.054,0.452,0.796,0.756,�k�k��,5.8,��
2018/12/22,18:40,0.778,1.163,0.816,1.487,1.057,0.453,0.797,0.757,�k�k��,6.3,��
2018/12/22,18:50,0.780,1.162,0.819,1.485,1.057,0.452,0.799,0.755,�k�k��,6.4,��
2018/12/22,19:00,0.779,1.161,0.815,1.489,1.056,0.452,0.798,0.754,�k�k��,5.0,��
2018/12/22,19:10,0.781,1.162,0.816,1.486,1.053,0.452,0.798,0.757,�k��,4.3,��
2018/12/22,19:20,0.781,1.159,0.816,1.487,1.055,0.453,0.796,0.754,�k��,4.9,��
2018/12/22,19:30,0.779,1.163,0.816,1.488,1.056,0.452,0.798,0.755,�k�k��,5.3,��
2018/12/22,19:40,0.779,1.162,0.816,1.485,1.056,0.452,0.797,0.755,�k�k��,4.9,��
2018/12/22,19:50,0.779,1.160,0.815,1.488,1.055,0.452,0.797,0.756,�k�k��,4.5,��
2018/12/22,20:00,0.780,1.162,0.815,1.486,1.056,0.453,0.796,0.753,�k�k��,4.9,��
2018/12/22,20:10,0.778,1.160,0.817,1.486,1.054,0.453,0.797,0.755,�k�k��,4.7,��
2018/12/22,20:20,0.778,1.161,0.817,1.485,1.055,0.451,0.797,0.756,�k�k��,5.2,��
2018/12/22,20:30,0.780,1.160,0.817,1.484,1.053,0.452,0.796,0.754,�k�k��,5.6,��
2018/12/22,20:40,0.778,1.159,0.816,1.486,1.057,0.452,0.798,0.755,�k�k��,5.5,��
2018/12/22,20:50,0.777,1.161,0.817,1.485,1.056,0.452,0.796,0.755,�k�k��,5.6,��
2018/12/22,21:00,0.780,1.159,0.816,1.486,1.055,0.452,0.796,0.753,�k�k��,6.6,��
2018/12/22,21:10,0.779,1.159,0.817,1.482,1.057,0.452,0.796,0.755,�k�k��,6.6,��
2018/12/22,21:20,0.777,1.160,0.814,1.485,1.055,0.452,0.799,0.755,�k�k��,7.4,��
2018/12/22,21:30,0.780,1.160,0.817,1.485,1.056,0.451,0.797,0.754,�k�k��,8.7,��
2018/12/22,21:40,0.775,1.161,0.815,1.485,1.057,0.452,0.799,0.754,�k�k��,9.4,��
2018/12/22,21:50,0.779,1.160,0.815,1.485,1.057,0.451,0.797,0.754,�k�k��,9.1,��
2018/12/22,22:00,0.778,1.161,0.817,1.484,1.054,0.451,0.800,0.755,�k�k��,7.3,��
2018/12/22,22:10,0.778,1.160,0.815,1.485,1.054,0.452,0.795,0.755,�k�k��,6.8,��
2018/12/22,22:20,0.778,1.160,0.816,1.484,1.055,0.450,0.798,0.755,�k�k��,6.2,��
2018/12/22,22:30,0.778,1.161,0.815,1.485,1.055,0.451,0.795,0.755,�k��,4.4,��
2018/12/22,22:40,0.777,1.157,0.818,1.485,1.054,0.453,0.796,0.754,�k��,4.1,��
2018/12/22,22:50,0.778,1.160,0.817,1.486,1.053,0.451,0.797,0.755,�k��,4.6,��
2018/12/22,23:00,0.780,1.163,0.817,1.483,1.053,0.451,0.798,0.754,�k�k��,6.1,��
2018/12/22,23:10,0.778,1.157,0.816,1.483,1.053,0.452,0.794,0.755,�k��,5.7,��
2018/12/22,23:20,0.778,1.160,0.816,1.483,1.056,0.451,0.798,0.755,�k��,5.5,��
2018/12/22,23:30,0.777,1.160,0.815,1.484,1.053,0.451,0.799,0.755,�k�k��,6.0,��
2018/12/22,23:40,0.778,1.157,0.816,1.484,1.052,0.451,0.797,0.755,�k��,5.3,��
2018/12/22,23:50,0.778,1.160,0.817,1.487,1.054,0.451,0.795,0.753,�k��,4.7,��
